This is the latest recevied weather packets stored in our database for station/object KI5NXU. If no packets are shown the sender has not sent any weather packets the latest 10 day(s).
| Time | Temp. | Humidity | Pressure | Rain* | Wind** | Luminosity | Snow |
|---|---|---|---|---|---|---|---|
| 1778031597 | 19.44° C | 70% | 1006.8 hPa | 0 mm | - | 0 W/m² | - |
| 1778031295 | 20° C | 70% | 1006.5 hPa | 0 mm | - | 0 W/m² | - |
| 1778030991 | 20° C | 70% | 1006.4 hPa | 0 mm | - | 0 W/m² | - |
| 1778030688 | 20.56° C | 69% | 1006.6 hPa | 0 mm | - | 0 W/m² | - |
| 1778030384 | 20.56° C | 68% | 1006.7 hPa | 0 mm | - | 0 W/m² | - |
| 1778030082 | 21.11° C | 67% | 1006.5 hPa | 0 mm | - | 2 W/m² | - |
| 1778029779 | 21.11° C | 66% | 1006.4 hPa | 0 mm | - | 4 W/m² | - |
| 1778029478 | 21.11° C | 65% | 1006.6 hPa | 0 mm | - | 8 W/m² | - |
| 1778029173 | 21.11° C | 65% | 1006.6 hPa | 0 mm | - | 13 W/m² | - |
| 1778028872 | 21.67° C | 64% | 1006.1 hPa | 0 mm | - | 20 W/m² | - |
| 1778028566 | 21.67° C | 63% | 1006 hPa | 0 mm | - | 30 W/m² | - |
| 1778028265 | 22.22° C | 63% | 1006.1 hPa | 0 mm | - | 38 W/m² | - |
| 1778027960 | 21.67° C | 63% | 1006 hPa | 0 mm | - | 49 W/m² | - |
| 1778027657 | 22.22° C | 63% | 1005.8 hPa | 0 mm | - | 46 W/m² | - |
| 1778027354 | 22.22° C | 62% | 1005.7 hPa | 0 mm | - | 55 W/m² | - |
| 1778027050 | 21.67° C | 61% | 1005.7 hPa | 0 mm | - | 75 W/m² | - |
| 1778026745 | 21.67° C | 62% | 1005.5 hPa | 0 mm | - | 65 W/m² | - |
| 1778026442 | 22.22° C | 63% | 1005.3 hPa | 0 mm | - | 78 W/m² | - |
| 1778026139 | 22.22° C | 63% | 1005.3 hPa | 0 mm | - | 84 W/m² | - |
| 1778025837 | 22.22° C | 62% | 1005.5 hPa | 0 mm | - | 98 W/m² | - |
| 1778025534 | 22.78° C | 61% | 1005.9 hPa | 0 mm | - | 88 W/m² | - |
| 1778025231 | 22.78° C | 61% | 1005.6 hPa | 0 mm | - | 93 W/m² | - |
| 1778024928 | 22.78° C | 62% | 1005.6 hPa | 0 mm | - | 103 W/m² | - |
| 1778024626 | 22.78° C | 62% | 1005.9 hPa | 0 mm | - | 92 W/m² | - |
| 1778024322 | 22.78° C | 62% | 1005.7 hPa | 0 mm | - | 80 W/m² | - |
* Rain latest hour (hover to see other rain measurements)
** Current wind speed in m/s (hover to see current wind gust speed)